Location: Central Falls
(41.8900°N, 71.3929°W)
Time: 11:49:44
(UTC+00:00)

Altair - Pass Details

Date: 11 December 2023
Orbit: 1501 x 1682 km, 47.2° (Epoch: 20 February)

Event Time Altitude Azimuth Distance (km) Brightness Sun altitude
Rises 16:42:49 0° 295° (WNW) 4,756 9.9 25.1°
Reaches altitude 10° 16:45:56 10° 295° (WNW) 3,747 9.4 25.1°
Maximum altitude 16:55:22 80° 210° (SSW) 1,541 8.1 25.0°
Drops below altitude 10° 17:04:32 10° 125° (SE) 3,647 9.9 24.8°
Sets 17:07:31 0° 124° (SE) 4,624 10.4 24.8°
